Location: Wheeling
(40.0640°N, 80.7210°W)
Time: 13:09:09
(UTC-04:00)

ISS - Pass Details

Date: 05 August 2021
Orbit: 419 x 423 km, 51.6° (Epoch: 19 September)

Event Time Altitude Azimuth Distance (km) Brightness Sun altitude
Rises 20:52:37 0° 297° (WNW) 2,376 3.3 -4.4°
Reaches altitude 10° 20:54:56 10° 284° (WNW) 1,506 0.7 -4.8°
Maximum altitude 20:57:46 25° 227° (SW) 892 -1.8 -5.3°
Drops below altitude 10° 21:00:35 10° 170° (S) 1,495 -1.3 -5.8°
Enters shadow 21:02:26 - 158° (SSE) 2,175 -0.6 -6.1°
